When you browse on this site, cookies collect data to enhance your experience and personalize the content and advertising you see.
Visit our Privacy Policy to learn more. By continuing to use the site, you agree to this use of cookies and data.
  • In Portugal
  • List of Countries
  • For 7 days
  • Water Temperature
  • Satellite Maps
  • Weather Map
  • Weather Widgets
  • user-avatar
    Login

    Hourly Weather Grechuhi

    Today, 20 June, Thursday

    Time Temperature Precipitation Wind Pressure Humidity
    00:00 +18°C° 0 mm 2 mps 749 mmHg 80%
    01:00 +18°C° 0 mm 2 mps 749 mmHg 80%
    02:00 +18°C° 0 mm 2 mps 749 mmHg 78%
    03:00 +18°C° 0 mm 2 mps 749 mmHg 80%
    04:00 +18°C° 0 mm 2 mps 749 mmHg 82%
    05:00 +18°C° 0 mm 2 mps 749 mmHg 84%
    06:00 +19°C° 0 mm 2 mps 749 mmHg 81%
    07:00 +21°C° 0 mm 2 mps 749 mmHg 78%
    08:00 +22°C° 0 mm 3 mps 749 mmHg 75%
    09:00 +24°C° 0.1 mm 3 mps 749 mmHg 71%
    10:00 +26°C° 0.1 mm 3 mps 749 mmHg 68%
    11:00 +27°C° 0.1 mm 3 mps 749 mmHg 64%
    12:00 +28°C° 0.6 mm 3 mps 749 mmHg 64%
    13:00 +28°C° 0.6 mm 3 mps 748 mmHg 63%
    14:00 +28°C° 0.6 mm 3 mps 748 mmHg 62%
    15:00 +28°C° 0.7 mm 3 mps 748 mmHg 66%
    16:00 +28°C° 0.7 mm 3 mps 748 mmHg 69%
    17:00 +27°C° 0.7 mm 3 mps 748 mmHg 73%
    18:00 +26°C° 0.1 mm 3 mps 748 mmHg 77%
    19:00 +25°C° 0.1 mm 3 mps 748 mmHg 82%
    20:00 +22°C° 0.1 mm 3 mps 747 mmHg 86%
    21:00 +22°C° 0 mm 3 mps 748 mmHg 88%
    22:00 +21°C° 0 mm 3 mps 748 mmHg 89%
    23:00 +20°C° 0 mm 3 mps 748 mmHg 91%

    Tomorrow, 21 June, Friday

    Time Temperature Precipitation Wind Pressure Humidity
    00:00 +20°C° 0 mm 3 mps 748 mmHg 92%
    01:00 +20°C° 0 mm 3 mps 748 mmHg 93%
    02:00 +19°C° 0 mm 3 mps 748 mmHg 94%
    03:00 +20°C° 0 mm 3 mps 748 mmHg 94%
    04:00 +20°C° 0 mm 3 mps 748 mmHg 94%
    05:00 +20°C° 0 mm 3 mps 748 mmHg 94%
    06:00 +21°C° 0 mm 3 mps 748 mmHg 90%
    07:00 +23°C° 0 mm 4 mps 749 mmHg 85%
    08:00 +25°C° 0 mm 4 mps 749 mmHg 81%
    09:00 +26°C° 0.8 mm 4 mps 749 mmHg 76%
    10:00 +28°C° 0.8 mm 5 mps 749 mmHg 72%
    11:00 +29°C° 0.8 mm 5 mps 748 mmHg 67%
    12:00 +29°C° 0.5 mm 5 mps 748 mmHg 66%
    13:00 +29°C° 0.5 mm 5 mps 748 mmHg 65%
    14:00 +30°C° 0.5 mm 5 mps 748 mmHg 64%
    15:00 +29°C° 0.5 mm 4 mps 748 mmHg 66%
    16:00 +29°C° 0.5 mm 4 mps 748 mmHg 69%
    17:00 +29°C° 0.5 mm 3 mps 748 mmHg 72%
    18:00 +27°C° 0.2 mm 3 mps 748 mmHg 76%
    19:00 +26°C° 0.2 mm 3 mps 748 mmHg 81%
    20:00 +25°C° 0.2 mm 3 mps 747 mmHg 85%
    21:00 +24°C° 0 mm 3 mps 748 mmHg 87%
    22:00 +22°C° 0 mm 3 mps 748 mmHg 89%
    23:00 +21°C° 0 mm 3 mps 748 mmHg 90%

    Day after tomorrow, 22 June, Saturday

    Time Temperature Precipitation Wind Pressure Humidity
    00:00 +21°C° 0 mm 3 mps 748 mmHg 91%
    01:00 +21°C° 0 mm 3 mps 748 mmHg 91%
    02:00 +20°C° 0 mm 3 mps 748 mmHg 92%
    03:00 +20°C° 0.1 mm 3 mps 748 mmHg 92%
    04:00 +20°C° 0.1 mm 3 mps 748 mmHg 92%
    05:00 +20°C° 0.1 mm 3 mps 748 mmHg 92%
    06:00 +22°C° 0.4 mm 3 mps 748 mmHg 89%
    07:00 +24°C° 0.4 mm 3 mps 749 mmHg 85%
    08:00 +25°C° 0.4 mm 3 mps 749 mmHg 82%
    09:00 +26°C° 2.4 mm 3 mps 749 mmHg 78%
    10:00 +27°C° 2.4 mm 3 mps 749 mmHg 74%
    11:00 +28°C° 2.4 mm 3 mps 749 mmHg 70%
    12:00 +28°C° 1.3 mm 3 mps 749 mmHg 68%
    13:00 +29°C° 1.3 mm 3 mps 749 mmHg 67%
    14:00 +29°C° 1.3 mm 3 mps 749 mmHg 65%
    15:00 +29°C° 1.9 mm 3 mps 749 mmHg 68%
    16:00 +28°C° 1.9 mm 2 mps 749 mmHg 71%
    17:00 +28°C° 1.9 mm 2 mps 749 mmHg 74%
    18:00 +27°C° 0.4 mm 2 mps 749 mmHg 77%
    19:00 +25°C° 0.4 mm 2 mps 749 mmHg 80%
    20:00 +24°C° 0.4 mm 2 mps 749 mmHg 84%
    21:00 +23°C° 0.5 mm 1 mps 749 mmHg 86%
    22:00 +23°C° 0.5 mm 1 mps 749 mmHg 88%
    23:00 +22°C° 0.5 mm 1 mps 749 mmHg 90%

    23 June, Sunday

    Time Temperature Precipitation Wind Pressure Humidity
    00:00 +22°C° 0.1 mm 1 mps 749 mmHg 91%
    01:00 +20°C° 0.1 mm 2 mps 749 mmHg 91%
    02:00 +20°C° 0.1 mm 2 mps 750 mmHg 92%
    03:00 +20°C° 0.2 mm 2 mps 750 mmHg 93%
    04:00 +20°C° 0.2 mm 2 mps 750 mmHg 94%
    05:00 +20°C° 0.2 mm 2 mps 750 mmHg 94%
    06:00 +21°C° 0.5 mm 2 mps 750 mmHg 91%
    07:00 +23°C° 0.5 mm 2 mps 750 mmHg 88%
    08:00 +25°C° 0.5 mm 2 mps 750 mmHg 85%
    09:00 +26°C° 2.1 mm 2 mps 750 mmHg 80%
    10:00 +27°C° 2.1 mm 2 mps 750 mmHg 75%
    11:00 +28°C° 2.1 mm 2 mps 751 mmHg 71%
    12:00 +28°C° 1.9 mm 2 mps 751 mmHg 72%
    13:00 +27°C° 1.9 mm 2 mps 751 mmHg 73%
    14:00 +27°C° 1.9 mm 2 mps 751 mmHg 75%
    15:00 +26°C° 0.7 mm 3 mps 751 mmHg 80%
    16:00 +25°C° 0.7 mm 4 mps 750 mmHg 85%
    17:00 +22°C° 0.7 mm 5 mps 750 mmHg 90%
    18:00 +22°C° 0.5 mm 4 mps 751 mmHg 90%
    19:00 +21°C° 0.5 mm 4 mps 751 mmHg 91%
    20:00 +21°C° 0.5 mm 3 mps 751 mmHg 92%
    21:00 +21°C° 0.1 mm 3 mps 752 mmHg 93%
    22:00 +20°C° 0.1 mm 3 mps 752 mmHg 94%
    23:00 +20°C° 0.1 mm 3 mps 752 mmHg 95%

    24 June, Monday

    Time Temperature Precipitation Wind Pressure Humidity
    00:00 +19°C° 0.3 mm 3 mps 752 mmHg 96%
    01:00 +19°C° 0.3 mm 3 mps 752 mmHg 97%
    02:00 +18°C° 0.3 mm 3 mps 752 mmHg 97%
    03:00 +18°C° 0.2 mm 3 mps 752 mmHg 97%
    04:00 +18°C° 0.2 mm 3 mps 752 mmHg 97%
    05:00 +18°C° 0.2 mm 3 mps 752 mmHg 97%
    06:00 +19°C° 0.2 mm 3 mps 752 mmHg 96%
    07:00 +20°C° 0.2 mm 3 mps 753 mmHg 94%
    08:00 +21°C° 0.2 mm 3 mps 753 mmHg 92%
    09:00 +21°C° 0.8 mm 4 mps 753 mmHg 91%
    10:00 +21°C° 0.8 mm 4 mps 753 mmHg 90%
    11:00 +22°C° 0.8 mm 4 mps 753 mmHg 90%
    12:00 +22°C° 0.1 mm 5 mps 753 mmHg 87%
    13:00 +23°C° 0.1 mm 5 mps 753 mmHg 85%
    14:00 +23°C° 0.1 mm 5 mps 753 mmHg 83%
    15:00 +23°C° 0.1 mm 5 mps 753 mmHg 83%
    16:00 +23°C° 0.1 mm 5 mps 753 mmHg 83%
    17:00 +23°C° 0.1 mm 4 mps 753 mmHg 82%
    18:00 +22°C° 0.2 mm 4 mps 753 mmHg 85%
    19:00 +21°C° 0.2 mm 4 mps 753 mmHg 88%
    20:00 +20°C° 0.2 mm 4 mps 754 mmHg 90%
    21:00 +19°C° 0 mm 4 mps 754 mmHg 91%
    22:00 +18°C° 0 mm 4 mps 754 mmHg 91%
    23:00 +17°C° 0 mm 3 mps 754 mmHg 91%

    25 June, Tuesday

    Time Temperature Precipitation Wind Pressure Humidity
    00:00 +17°C° 0 mm 3 mps 754 mmHg 89%
    01:00 +17°C° 0 mm 3 mps 754 mmHg 86%
    02:00 +17°C° 0 mm 3 mps 754 mmHg 83%
    03:00 +16°C° 0 mm 3 mps 754 mmHg 85%
    04:00 +16°C° 0 mm 3 mps 754 mmHg 86%
    05:00 +16°C° 0 mm 2 mps 754 mmHg 87%
    06:00 +17°C° 0 mm 3 mps 754 mmHg 84%
    07:00 +18°C° 0 mm 3 mps 754 mmHg 81%
    08:00 +20°C° 0 mm 3 mps 754 mmHg 78%
    09:00 +21°C° 0 mm 3 mps 754 mmHg 76%
    10:00 +22°C° 0 mm 3 mps 754 mmHg 74%
    11:00 +24°C° 0 mm 3 mps 754 mmHg 71%
    12:00 +25°C° 0 mm 4 mps 754 mmHg 70%
    13:00 +25°C° 0 mm 4 mps 754 mmHg 68%
    14:00 +26°C° 0 mm 4 mps 754 mmHg 66%
    15:00 +26°C° 0.1 mm 4 mps 754 mmHg 67%
    16:00 +25°C° 0.1 mm 4 mps 754 mmHg 68%
    17:00 +25°C° 0.1 mm 4 mps 753 mmHg 69%
    18:00 +22°C° 0 mm 4 mps 754 mmHg 72%
    19:00 +21°C° 0 mm 3 mps 754 mmHg 76%
    20:00 +19°C° 0 mm 2 mps 754 mmHg 79%
    21:00 +18°C° 0 mm 2 mps 754 mmHg 80%
    22:00 +18°C° 0 mm 3 mps 754 mmHg 81%
    23:00 +17°C° 0 mm 3 mps 754 mmHg 82%
    Show more